Location: ???????
(54.6339°N, 39.4245°E)
Time: 07:50:05
(UTC+00:00)

SL-16 R/B - Pass Details

Date: 19 May 2025
Orbit: 985 x 1006 km, 99.7° (Epoch: 23 June)

Event Time Altitude Azimuth Distance (km) Brightness Sun altitude
Rises 23:00:34 0° 127° (SE) 3,689 5.4 -12.3°
Reaches altitude 10° 23:03:12 10° 119° (ESE) 2,745 4.8 -12.1°
Maximum altitude 23:08:43 36° 56° (NE) 1,518 4.1 -11.8°
Drops below altitude 10° 23:14:17 10° 352° (N) 2,766 5.8 -11.4°
Sets 23:16:56 0° 345° (NNW) 3,721 6.3 -11.2°
